contact:dominique.lefevre@mio.osupytheas.fr, maurice.libes@osupytheas.fr, didier.mallarino@osupytheas.fr
Project:EMSO http://www.emso-fr.org/EMSO-France
Depth: 2436.0 m
Title:EMSO Ligure Ouest : Data MII capteur MICROCAT
DateTime_Computer,Latitude,Longitude,Temperature,Conductivity,Pressure,DateTime_Instrument
DateTime_Computer,Latitude,Longitude,degC,S m-1,dbar,DateTime_Instrument
2021-02-06T00:02:32Z,42.805,6.029,13.2989,4.60026,2470.203,2021-2-06T02:03:36Z
2021-02-06T00:05:36Z,42.805,6.029,13.2992,4.60024,2470.264,2021-2-06T02:06:39Z
2021-02-06T00:08:39Z,42.805,6.029,13.2989,4.60014,2470.24,2021-2-06T02:09:42Z
2021-02-06T00:11:42Z,42.805,6.029,13.2991,4.60014,2470.25,2021-2-06T02:12:45Z
2021-02-06T00:14:45Z,42.805,6.029,13.2996,4.60009,2470.227,2021-2-06T02:15:48Z
2021-02-06T00:17:48Z,42.805,6.029,13.2992,4.60016,2470.264,2021-2-06T02:18:51Z
2021-02-06T00:20:51Z,42.805,6.029,13.2991,4.60019,2470.25,2021-2-06T02:21:54Z
2021-02-06T00:23:54Z,42.805,6.029,13.2991,4.60011,2470.24,2021-2-06T02:24:57Z
2021-02-06T00:26:57Z,42.805,6.029,13.2993,4.60022,2470.264,2021-2-06T02:28:00Z
2021-02-06T00:30:00Z,42.805,6.029,13.2990,4.60020,2470.25,2021-2-06T02:31:04Z
2021-02-06T00:33:04Z,42.805,6.029,13.2990,4.60016,2470.25,2021-2-06T02:34:07Z
2021-02-06T00:36:07Z,42.805,6.029,13.2990,4.60023,2470.25,2021-2-06T02:37:10Z
2021-02-06T00:39:10Z,42.805,6.029,13.2993,4.60016,2470.273,2021-2-06T02:40:13Z
2021-02-06T00:42:13Z,42.805,6.029,13.2990,4.60023,2470.264,2021-2-06T02:43:16Z
2021-02-06T00:45:16Z,42.805,6.029,13.2993,4.60006,2470.273,2021-2-06T02:46:19Z
2021-02-06T00:48:19Z,42.805,6.029,13.2990,4.60012,2470.25,2021-2-06T02:49:22Z
2021-02-06T00:51:22Z,42.805,6.029,13.2991,4.60022,2470.287,2021-2-06T02:52:25Z
2021-02-06T00:54:25Z,42.805,6.029,13.2990,4.60019,2470.287,2021-2-06T02:55:29Z
2021-02-06T00:57:29Z,42.805,6.029,13.2993,4.60014,2470.287,2021-2-06T02:58:32Z
2021-02-06T01:00:32Z,42.805,6.029,13.2991,4.60013,2470.25,2021-2-06T03:01:35Z
2021-02-06T01:03:35Z,42.805,6.029,13.2996,4.60015,2470.25,2021-2-06T03:04:38Z
2021-02-06T01:06:38Z,42.805,6.029,13.2993,4.60020,2470.25,2021-2-06T03:07:41Z
2021-02-06T01:09:41Z,42.805,6.029,13.2993,4.60021,2470.264,2021-2-06T03:10:44Z
2021-02-06T01:12:44Z,42.805,6.029,13.2995,4.60006,2470.25,2021-2-06T03:13:47Z
2021-02-06T01:15:47Z,42.805,6.029,13.2993,4.60003,2470.287,2021-2-06T03:16:50Z
2021-02-06T01:18:50Z,42.805,6.029,13.2997,4.60010,2470.273,2021-2-06T03:19:53Z
2021-02-06T01:21:53Z,42.805,6.029,13.2999,4.60009,2470.25,2021-2-06T03:22:57Z
2021-02-06T01:24:57Z,42.805,6.029,13.3000,4.60005,2470.264,2021-2-06T03:26:00Z
2021-02-06T01:28:00Z,42.805,6.029,13.2995,4.60009,2470.25,2021-2-06T03:29:03Z
2021-02-06T01:31:03Z,42.805,6.029,13.2998,4.60014,2470.297,2021-2-06T03:32:06Z
2021-02-06T01:34:06Z,42.805,6.029,13.2996,4.60031,2470.31,2021-2-06T03:35:09Z
2021-02-06T01:37:09Z,42.805,6.029,13.3004,4.60021,2470.25,2021-2-06T03:38:12Z
2021-02-06T01:40:12Z,42.805,6.029,13.3004,4.60021,2470.273,2021-2-06T03:41:15Z
2021-02-06T01:43:15Z,42.805,6.029,13.3001,4.60026,2470.287,2021-2-06T03:44:18Z
2021-02-06T01:46:18Z,42.805,6.029,13.2996,4.60011,2470.264,2021-2-06T03:47:22Z
2021-02-06T01:49:21Z,42.805,6.029,13.2994,4.60025,2470.273,2021-2-06T03:50:25Z
2021-02-06T01:52:25Z,42.805,6.029,13.2994,4.60011,2470.273,2021-2-06T03:53:28Z
2021-02-06T01:55:28Z,42.805,6.029,13.2993,4.60008,2470.273,2021-2-06T03:56:31Z
2021-02-06T01:58:31Z,42.805,6.029,13.2993,4.60011,2470.25,2021-2-06T03:59:34Z
2021-02-06T02:01:34Z,42.805,6.029,13.2992,4.60016,2470.264,2021-2-06T04:02:37Z
2021-02-06T02:04:37Z,42.805,6.029,13.2992,4.60019,2470.273,2021-2-06T04:05:40Z
2021-02-06T02:07:40Z,42.805,6.029,13.2996,4.60044,2470.273,2021-2-06T04:08:43Z
2021-02-06T02:10:43Z,42.805,6.029,13.2991,4.60020,2470.287,2021-2-06T04:11:46Z
2021-02-06T02:13:46Z,42.805,6.029,13.3143,4.60054,2470.24,2021-2-06T04:14:50Z
2021-02-06T02:16:50Z,42.805,6.029,13.2998,4.60073,2470.273,2021-2-06T04:17:53Z
2021-02-06T02:19:53Z,42.805,6.029,13.3000,4.60067,2470.25,2021-2-06T04:20:56Z
2021-02-06T02:22:56Z,42.805,6.029,13.2998,4.60054,2470.31,2021-2-06T04:23:59Z
2021-02-06T02:25:59Z,42.805,6.029,13.2997,4.60019,2470.264,2021-2-06T04:27:02Z
2021-02-06T02:29:02Z,42.805,6.029,13.2997,4.60017,2470.264,2021-2-06T04:30:05Z
2021-02-06T02:32:05Z,42.805,6.029,13.3011,4.60006,2470.287,2021-2-06T04:33:08Z
2021-02-06T02:35:08Z,42.805,6.029,13.3023,4.60022,2470.273,2021-2-06T04:36:11Z
2021-02-06T02:38:11Z,42.805,6.029,13.3024,4.60055,2470.264,2021-2-06T04:39:15Z
2021-02-06T02:41:14Z,42.805,6.029,13.3027,4.60076,2470.287,2021-2-06T04:42:18Z
2021-02-06T02:44:18Z,42.805,6.029,13.3024,4.60081,2470.273,2021-2-06T04:45:21Z
2021-02-06T02:47:21Z,42.805,6.029,13.3021,4.60072,2470.273,2021-2-06T04:48:24Z
2021-02-06T02:50:24Z,42.805,6.029,13.3018,4.60088,2470.273,2021-2-06T04:51:27Z
2021-02-06T02:53:27Z,42.805,6.029,13.3033,4.60067,2470.264,2021-2-06T04:54:30Z
2021-02-06T02:56:30Z,42.805,6.029,13.3054,4.60052,2470.273,2021-2-06T04:57:33Z
2021-02-06T02:59:33Z,42.805,6.029,13.3044,4.60062,2470.25,2021-2-06T05:00:36Z
2021-02-06T03:02:36Z,42.805,6.029,13.3029,4.60057,2470.264,2021-2-06T05:03:39Z
2021-02-06T03:05:39Z,42.805,6.029,13.3031,4.60070,2470.287,2021-2-06T05:06:43Z
2021-02-06T03:08:43Z,42.805,6.029,13.3020,4.60062,2470.287,2021-2-06T05:09:46Z
2021-02-06T03:11:46Z,42.805,6.029,13.3018,4.60069,2470.273,2021-2-06T05:12:49Z
2021-02-06T03:14:49Z,42.805,6.029,13.3040,4.60051,2470.287,2021-2-06T05:15:52Z
2021-02-06T03:17:52Z,42.805,6.029,13.3024,4.60052,2470.264,2021-2-06T05:18:55Z
2021-02-06T03:20:55Z,42.805,6.029,13.3052,4.60074,2470.273,2021-2-06T05:21:58Z
2021-02-06T03:23:58Z,42.805,6.029,13.3024,4.60051,2470.287,2021-2-06T05:25:01Z
2021-02-06T03:27:01Z,42.805,6.029,13.3017,4.60059,2470.273,2021-2-06T05:28:04Z
2021-02-06T03:30:04Z,42.805,6.029,13.3029,4.60058,2470.264,2021-2-06T05:31:08Z
2021-02-06T03:33:07Z,42.805,6.029,13.3035,4.60097,2470.227,2021-2-06T05:34:11Z
2021-02-06T03:36:11Z,42.805,6.029,13.3019,4.60087,2470.264,2021-2-06T05:37:14Z
2021-02-06T03:39:14Z,42.805,6.029,13.3009,4.60052,2470.264,2021-2-06T05:40:17Z
2021-02-06T03:42:17Z,42.805,6.029,13.3019,4.60063,2470.287,2021-2-06T05:43:20Z
2021-02-06T03:45:20Z,42.805,6.029,13.3016,4.60084,2470.297,2021-2-06T05:46:23Z
2021-02-06T03:48:23Z,42.805,6.029,13.3023,4.60054,2470.264,2021-2-06T05:49:26Z
2021-02-06T03:51:26Z,42.805,6.029,13.3007,4.60092,2470.264,2021-2-06T05:52:29Z
2021-02-06T03:54:29Z,42.805,6.029,13.3008,4.60098,2470.213,2021-2-06T05:55:33Z
2021-02-06T03:57:32Z,42.805,6.029,13.3011,4.60110,2470.297,2021-2-06T05:58:36Z
2021-02-06T04:00:36Z,42.805,6.029,13.3019,4.60123,2470.31,2021-2-06T06:01:39Z
2021-02-06T04:03:39Z,42.805,6.029,13.3032,4.60074,2470.287,2021-2-06T06:04:42Z
2021-02-06T04:06:42Z,42.805,6.029,13.3027,4.60066,2470.287,2021-2-06T06:07:45Z
2021-02-06T04:09:45Z,42.805,6.029,13.3021,4.60084,2470.25,2021-2-06T06:10:48Z
2021-02-06T04:12:48Z,42.805,6.029,13.3025,4.60093,2470.273,2021-2-06T06:13:51Z
2021-02-06T04:15:51Z,42.805,6.029,13.3009,4.60105,2470.25,2021-2-06T06:16:54Z
2021-02-06T04:18:54Z,42.805,6.029,13.3014,4.60109,2470.25,2021-2-06T06:19:57Z
2021-02-06T04:21:57Z,42.805,6.029,13.3029,4.60091,2470.264,2021-2-06T06:23:01Z
2021-02-06T04:25:01Z,42.805,6.029,13.3041,4.60086,2470.25,2021-2-06T06:26:04Z
2021-02-06T04:28:04Z,42.805,6.029,13.3021,4.60075,2470.227,2021-2-06T06:29:07Z
2021-02-06T04:31:07Z,42.805,6.029,13.3025,4.60075,2470.24,2021-2-06T06:32:10Z
2021-02-06T04:34:10Z,42.805,6.029,13.3031,4.60092,2470.273,2021-2-06T06:35:13Z
2021-02-06T04:37:13Z,42.805,6.029,13.3021,4.60068,2470.25,2021-2-06T06:38:16Z
2021-02-06T04:40:16Z,42.805,6.029,13.3038,4.60064,2470.287,2021-2-06T06:41:19Z
2021-02-06T04:43:19Z,42.805,6.029,13.3037,4.60057,2470.264,2021-2-06T06:44:22Z
2021-02-06T04:46:22Z,42.805,6.029,13.3028,4.60102,2470.273,2021-2-06T06:47:26Z
2021-02-06T04:49:26Z,42.805,6.029,13.3056,4.60064,2470.273,2021-2-06T06:50:29Z
2021-02-06T04:52:29Z,42.805,6.029,13.3056,4.60070,2470.264,2021-2-06T06:53:32Z
2021-02-06T04:55:32Z,42.805,6.029,13.3030,4.60062,2470.24,2021-2-06T06:56:35Z
2021-02-06T04:58:35Z,42.805,6.029,13.3056,4.60055,2470.264,2021-2-06T06:59:38Z
2021-02-06T05:01:38Z,42.805,6.029,13.3036,4.60094,2470.31,2021-2-06T07:02:41Z
2021-02-06T05:04:41Z,42.805,6.029,13.3064,4.60077,2470.25,2021-2-06T07:05:44Z
2021-02-06T05:07:44Z,42.805,6.029,13.3063,4.60076,2470.264,2021-2-06T07:08:47Z
2021-02-06T05:10:47Z,42.805,6.029,13.3041,4.60097,2470.25,2021-2-06T07:11:50Z
2021-02-06T05:13:50Z,42.805,6.029,13.3019,4.60099,2470.264,2021-2-06T07:14:54Z
2021-02-06T05:16:54Z,42.805,6.029,13.3042,4.60103,2470.25,2021-2-06T07:17:57Z
2021-02-06T05:19:57Z,42.805,6.029,13.3056,4.60028,2470.264,2021-2-06T07:21:00Z
2021-02-06T05:23:00Z,42.805,6.029,13.3052,4.60099,2470.264,2021-2-06T07:24:03Z
2021-02-06T05:26:03Z,42.805,6.029,13.3027,4.60098,2470.264,2021-2-06T07:27:06Z
2021-02-06T05:29:06Z,42.805,6.029,13.3034,4.60107,2470.25,2021-2-06T07:30:09Z
2021-02-06T05:32:09Z,42.805,6.029,13.3015,4.60077,2470.264,2021-2-06T07:33:12Z
2021-02-06T05:35:12Z,42.805,6.029,13.3017,4.60110,2470.287,2021-2-06T07:36:15Z
2021-02-06T05:38:15Z,42.805,6.029,13.3030,4.60089,2470.264,2021-2-06T07:39:19Z
2021-02-06T05:41:18Z,42.805,6.029,13.3044,4.60062,2470.25,2021-2-06T07:42:22Z
2021-02-06T05:44:22Z,42.805,6.029,13.3033,4.60058,2470.24,2021-2-06T07:45:25Z
2021-02-06T05:47:25Z,42.805,6.029,13.3040,4.60045,2470.264,2021-2-06T07:48:28Z
2021-02-06T05:50:28Z,42.805,6.029,13.3006,4.60104,2470.273,2021-2-06T07:51:31Z
2021-02-06T05:53:31Z,42.805,6.029,13.3034,4.60069,2470.273,2021-2-06T07:54:34Z
2021-02-06T05:56:34Z,42.805,6.029,13.3046,4.60067,2470.264,2021-2-06T07:57:37Z
2021-02-06T05:59:37Z,42.805,6.029,13.3054,4.60055,2470.273,2021-2-06T08:00:40Z
2021-02-06T06:02:40Z,42.805,6.029,13.3024,4.60088,2470.287,2021-2-06T08:03:43Z
2021-02-06T06:05:43Z,42.805,6.029,13.3051,4.60094,2470.24,2021-2-06T08:06:47Z
2021-02-06T06:08:47Z,42.805,6.029,13.3048,4.60064,2470.273,2021-2-06T08:09:50Z
2021-02-06T06:11:50Z,42.805,6.029,13.3054,4.60079,2470.287,2021-2-06T08:12:53Z
2021-02-06T06:14:53Z,42.805,6.029,13.3048,4.60103,2470.264,2021-2-06T08:15:56Z
2021-02-06T06:17:56Z,42.805,6.029,13.3056,4.60038,2470.25,2021-2-06T08:18:59Z
2021-02-06T06:20:59Z,42.805,6.029,13.3056,4.60102,2470.25,2021-2-06T08:22:02Z
2021-02-06T06:24:02Z,42.805,6.029,13.3063,4.60049,2470.264,2021-2-06T08:25:05Z
2021-02-06T06:27:05Z,42.805,6.029,13.3074,4.60021,2470.264,2021-2-06T08:28:08Z
2021-02-06T06:30:08Z,42.805,6.029,13.3038,4.60068,2470.24,2021-2-06T08:31:12Z
2021-02-06T06:33:12Z,42.805,6.029,13.3026,4.60066,2470.227,2021-2-06T08:34:15Z
2021-02-06T06:36:15Z,42.805,6.029,13.3053,4.60039,2470.264,2021-2-06T08:37:18Z
2021-02-06T06:39:18Z,42.805,6.029,13.3054,4.60057,2470.25,2021-2-06T08:40:21Z
2021-02-06T06:42:21Z,42.805,6.029,13.3046,4.60029,2470.227,2021-2-06T08:43:24Z
2021-02-06T06:45:24Z,42.805,6.029,13.3028,4.60024,2470.264,2021-2-06T08:46:27Z
2021-02-06T06:48:27Z,42.805,6.029,13.3013,4.60036,2470.24,2021-2-06T08:49:30Z
2021-02-06T06:51:30Z,42.805,6.029,13.3043,4.60044,2470.24,2021-2-06T08:52:33Z
2021-02-06T06:54:33Z,42.805,6.029,13.3025,4.60023,2470.264,2021-2-06T08:55:36Z
2021-02-06T06:57:36Z,42.805,6.029,13.3012,4.60055,2470.227,2021-2-06T08:58:40Z
2021-02-06T07:00:40Z,42.805,6.029,13.3037,4.60042,2470.227,2021-2-06T09:01:43Z
2021-02-06T07:03:43Z,42.805,6.029,13.3024,4.60057,2470.24,2021-2-06T09:04:46Z
2021-02-06T07:06:46Z,42.805,6.029,13.3032,4.60067,2470.264,2021-2-06T09:07:49Z
2021-02-06T07:09:49Z,42.805,6.029,13.3043,4.60026,2470.217,2021-2-06T09:10:52Z
2021-02-06T07:12:52Z,42.805,6.029,13.3039,4.60057,2470.24,2021-2-06T09:13:55Z
2021-02-06T07:15:55Z,42.805,6.029,13.3031,4.60058,2470.217,2021-2-06T09:16:58Z
2021-02-06T07:18:58Z,42.805,6.029,13.3034,4.60010,2470.227,2021-2-06T09:20:01Z
2021-02-06T07:22:01Z,42.805,6.029,13.3028,4.60027,2470.217,2021-2-06T09:23:05Z
2021-02-06T07:25:05Z,42.805,6.029,13.3020,4.60049,2470.24,2021-2-06T09:26:08Z
2021-02-06T07:28:08Z,42.805,6.029,13.3051,4.60046,2470.25,2021-2-06T09:29:11Z
2021-02-06T07:31:11Z,42.805,6.029,13.3035,4.60044,2470.24,2021-2-06T09:32:14Z
2021-02-06T07:34:14Z,42.805,6.029,13.3026,4.60050,2470.264,2021-2-06T09:35:17Z
2021-02-06T07:37:17Z,42.805,6.029,13.3029,4.60057,2470.24,2021-2-06T09:38:20Z
2021-02-06T07:40:20Z,42.805,6.029,13.3047,4.60044,2470.24,2021-2-06T09:41:23Z
2021-02-06T07:43:23Z,42.805,6.029,13.3047,4.60047,2470.24,2021-2-06T09:44:26Z
2021-02-06T07:46:26Z,42.805,6.029,13.3036,4.60042,2470.24,2021-2-06T09:47:30Z
2021-02-06T07:49:29Z,42.805,6.029,13.3019,4.60050,2470.217,2021-2-06T09:50:33Z
2021-02-06T07:52:33Z,42.805,6.029,13.3013,4.60041,2470.24,2021-2-06T09:53:36Z
2021-02-06T07:55:36Z,42.805,6.029,13.3030,4.60017,2470.227,2021-2-06T09:56:39Z
2021-02-06T07:58:39Z,42.805,6.029,13.3018,4.60013,2470.227,2021-2-06T09:59:42Z
2021-02-06T08:01:42Z,42.805,6.029,13.3004,4.60041,2470.217,2021-2-06T10:02:45Z
2021-02-06T08:04:45Z,42.805,6.029,13.3015,4.60011,2470.203,2021-2-06T10:05:48Z
2021-02-06T08:07:48Z,42.805,6.029,13.3019,4.60019,2470.24,2021-2-06T10:08:51Z
2021-02-06T08:10:51Z,42.805,6.029,13.3016,4.60049,2470.217,2021-2-06T10:11:54Z
2021-02-06T08:13:54Z,42.805,6.029,13.3026,4.60033,2470.24,2021-2-06T10:14:58Z
2021-02-06T08:16:58Z,42.805,6.029,13.3026,4.60021,2470.203,2021-2-06T10:18:01Z
2021-02-06T08:20:01Z,42.805,6.029,13.3019,4.60033,2470.24,2021-2-06T10:21:04Z
2021-02-06T08:23:04Z,42.805,6.029,13.3041,4.60057,2470.194,2021-2-06T10:24:07Z
2021-02-06T08:26:07Z,42.805,6.029,13.3021,4.60032,2470.24,2021-2-06T10:27:10Z
2021-02-06T08:29:10Z,42.805,6.029,13.3016,4.60035,2470.203,2021-2-06T10:30:13Z
2021-02-06T08:32:13Z,42.805,6.029,13.3032,4.60024,2470.217,2021-2-06T10:33:16Z
2021-02-06T08:35:16Z,42.805,6.029,13.3021,4.60036,2470.194,2021-2-06T10:36:19Z
2021-02-06T08:38:19Z,42.805,6.029,13.3031,4.60024,2470.24,2021-2-06T10:39:23Z
2021-02-06T08:41:23Z,42.805,6.029,13.3028,4.60015,2470.194,2021-2-06T10:42:26Z
2021-02-06T08:44:26Z,42.805,6.029,13.3014,4.60039,2470.217,2021-2-06T10:45:29Z
2021-02-06T08:47:29Z,42.805,6.029,13.3006,4.60057,2470.24,2021-2-06T10:48:32Z
2021-02-06T08:50:32Z,42.805,6.029,13.3022,4.60022,2470.217,2021-2-06T10:51:35Z
2021-02-06T08:53:35Z,42.805,6.029,13.3014,4.60011,2470.194,2021-2-06T10:54:38Z
2021-02-06T08:56:38Z,42.805,6.029,13.3024,4.60015,2470.194,2021-2-06T10:57:41Z
2021-02-06T08:59:41Z,42.805,6.029,13.3019,4.60023,2470.227,2021-2-06T11:00:44Z
2021-02-06T09:02:44Z,42.805,6.029,13.3047,4.60015,2470.217,2021-2-06T11:03:48Z
2021-02-06T09:05:48Z,42.805,6.029,13.3019,4.60024,2470.203,2021-2-06T11:06:51Z
2021-02-06T09:08:51Z,42.805,6.029,13.3033,4.60016,2470.203,2021-2-06T11:09:54Z
2021-02-06T09:11:54Z,42.805,6.029,13.3014,4.60024,2470.217,2021-2-06T11:12:57Z
2021-02-06T09:14:57Z,42.805,6.029,13.3019,4.60021,2470.227,2021-2-06T11:16:00Z
2021-02-06T09:18:00Z,42.805,6.029,13.3018,4.60022,2470.24,2021-2-06T11:19:03Z
2021-02-06T09:21:03Z,42.805,6.029,13.3018,4.60016,2470.18,2021-2-06T11:22:06Z
2021-02-06T09:24:06Z,42.805,6.029,13.3020,4.60013,2470.24,2021-2-06T11:25:09Z
2021-02-06T09:27:09Z,42.805,6.029,13.3021,4.60029,2470.203,2021-2-06T11:28:13Z
2021-02-06T09:30:13Z,42.805,6.029,13.3019,4.60011,2470.217,2021-2-06T11:31:16Z
2021-02-06T09:33:16Z,42.805,6.029,13.3021,4.60020,2470.203,2021-2-06T11:34:19Z
2021-02-06T09:36:19Z,42.805,6.029,13.3006,4.60015,2470.18,2021-2-06T11:37:22Z
2021-02-06T09:39:22Z,42.805,6.029,13.3014,4.60015,2470.203,2021-2-06T11:40:25Z
2021-02-06T09:42:25Z,42.805,6.029,13.3009,4.60006,2470.18,2021-2-06T11:43:28Z
2021-02-06T09:45:28Z,42.805,6.029,13.3002,4.59997,2470.24,2021-2-06T11:46:31Z
2021-02-06T09:48:31Z,42.805,6.029,13.3011,4.60015,2470.194,2021-2-06T11:49:34Z
2021-02-06T09:51:34Z,42.805,6.029,13.3021,4.60016,2470.227,2021-2-06T11:52:38Z
2021-02-06T09:54:38Z,42.805,6.029,13.3017,4.60017,2470.203,2021-2-06T11:55:41Z
2021-02-06T09:57:41Z,42.805,6.029,13.3031,4.60024,2470.217,2021-2-06T11:58:44Z
2021-02-06T10:00:44Z,42.805,6.029,13.3030,4.60021,2470.18,2021-2-06T12:01:47Z
2021-02-06T10:03:47Z,42.805,6.029,13.3010,4.60003,2470.227,2021-2-06T12:04:50Z
2021-02-06T10:06:50Z,42.805,6.029,13.3008,4.60016,2470.203,2021-2-06T12:07:53Z
2021-02-06T10:09:53Z,42.805,6.029,13.3019,4.60009,2470.227,2021-2-06T12:10:56Z
2021-02-06T10:12:56Z,42.805,6.029,13.3011,4.60016,2470.254,2021-2-06T12:13:59Z
2021-02-06T10:15:59Z,42.805,6.029,13.3015,4.60011,2470.227,2021-2-06T12:17:03Z
2021-02-06T10:19:03Z,42.805,6.029,13.3014,4.60014,2470.217,2021-2-06T12:20:06Z
2021-02-06T10:22:06Z,42.805,6.029,13.3016,4.60016,2470.203,2021-2-06T12:23:09Z
2021-02-06T10:25:09Z,42.805,6.029,13.3024,4.60015,2470.227,2021-2-06T12:26:12Z
2021-02-06T10:28:12Z,42.805,6.029,13.3009,4.60018,2470.25,2021-2-06T12:29:15Z
2021-02-06T10:31:15Z,42.805,6.029,13.3015,4.60043,2470.227,2021-2-06T12:32:18Z
2021-02-06T10:34:18Z,42.805,6.029,13.3021,4.60011,2470.18,2021-2-06T12:35:21Z
2021-02-06T10:37:21Z,42.805,6.029,13.3034,4.60026,2470.227,2021-2-06T12:38:24Z
2021-02-06T10:40:24Z,42.805,6.029,13.3017,4.60024,2470.227,2021-2-06T12:41:28Z
2021-02-06T10:43:28Z,42.805,6.029,13.3013,4.60014,2470.24,2021-2-06T12:44:31Z
2021-02-06T10:46:31Z,42.805,6.029,13.3032,4.60026,2470.264,2021-2-06T12:47:34Z
2021-02-06T10:49:34Z,42.805,6.029,13.3048,4.60016,2470.297,2021-2-06T12:50:37Z
2021-02-06T10:52:37Z,42.805,6.029,13.3029,4.60026,2470.227,2021-2-06T12:53:40Z
2021-02-06T10:55:40Z,42.805,6.029,13.3026,4.60010,2470.227,2021-2-06T12:56:43Z
2021-02-06T10:58:43Z,42.805,6.029,13.3035,4.60017,2470.227,2021-2-06T12:59:46Z
2021-02-06T11:01:46Z,42.805,6.029,13.3015,4.60011,2470.25,2021-2-06T13:02:49Z
2021-02-06T11:04:49Z,42.805,6.029,13.3011,4.60014,2470.25,2021-2-06T13:05:53Z
2021-02-06T11:07:53Z,42.805,6.029,13.3014,4.60012,2470.264,2021-2-06T13:08:56Z
2021-02-06T11:10:56Z,42.805,6.029,13.3010,4.60006,2470.24,2021-2-06T13:11:59Z
2021-02-06T11:13:59Z,42.805,6.029,13.3025,4.60014,2470.25,2021-2-06T13:15:02Z
2021-02-06T11:17:02Z,42.805,6.029,13.3028,4.60008,2470.25,2021-2-06T13:18:05Z
2021-02-06T11:20:05Z,42.805,6.029,13.3016,4.60009,2470.227,2021-2-06T13:21:08Z
2021-02-06T11:23:08Z,42.805,6.029,13.3028,4.60011,2470.227,2021-2-06T13:24:11Z
2021-02-06T11:26:11Z,42.805,6.029,13.3006,4.60008,2470.227,2021-2-06T13:27:14Z
2021-02-06T11:29:14Z,42.805,6.029,13.3006,4.60015,2470.25,2021-2-06T13:30:18Z
2021-02-06T11:32:18Z,42.805,6.029,13.3020,4.60014,2470.264,2021-2-06T13:33:21Z
2021-02-06T11:35:21Z,42.805,6.029,13.3029,4.60026,2470.25,2021-2-06T13:36:24Z
2021-02-06T11:38:24Z,42.805,6.029,13.3039,4.60010,2470.24,2021-2-06T13:39:27Z
2021-02-06T11:41:27Z,42.805,6.029,13.3024,4.60021,2470.25,2021-2-06T13:42:30Z
2021-02-06T11:44:30Z,42.805,6.029,13.3018,4.60016,2470.264,2021-2-06T13:45:33Z
2021-02-06T11:47:33Z,42.805,6.029,13.3011,4.60018,2470.264,2021-2-06T13:48:36Z
2021-02-06T11:50:36Z,42.805,6.029,13.3057,4.60015,2470.25,2021-2-06T13:51:39Z
2021-02-06T11:53:39Z,42.805,6.029,13.3038,4.60029,2470.25,2021-2-06T13:54:43Z
2021-02-06T11:56:43Z,42.805,6.029,13.3024,4.60011,2470.24,2021-2-06T13:57:46Z
2021-02-06T11:59:46Z,42.805,6.029,13.3026,4.60030,2470.24,2021-2-06T14:00:49Z
2021-02-06T12:02:49Z,42.805,6.029,13.3027,4.60022,2470.287,2021-2-06T14:03:52Z
2021-02-06T12:05:52Z,42.805,6.029,13.3031,4.60029,2470.24,2021-2-06T14:06:55Z
2021-02-06T12:08:55Z,42.805,6.029,13.3015,4.60024,2470.217,2021-2-06T14:09:58Z
2021-02-06T12:11:58Z,42.805,6.029,13.3051,4.60011,2470.25,2021-2-06T14:13:01Z
2021-02-06T12:15:01Z,42.805,6.029,13.3021,4.60010,2470.24,2021-2-06T14:16:04Z
2021-02-06T12:18:04Z,42.805,6.029,13.3017,4.60020,2470.227,2021-2-06T14:19:08Z
2021-02-06T12:21:07Z,42.805,6.029,13.3031,4.60012,2470.264,2021-2-06T14:22:11Z
2021-02-06T12:24:11Z,42.805,6.029,13.3019,4.60016,2470.227,2021-2-06T14:25:14Z
2021-02-06T12:27:14Z,42.805,6.029,13.3026,4.60019,2470.227,2021-2-06T14:28:17Z
2021-02-06T12:30:17Z,42.805,6.029,13.3024,4.60017,2470.25,2021-2-06T14:31:20Z
2021-02-06T12:33:20Z,42.805,6.029,13.3019,4.60021,2470.25,2021-2-06T14:34:23Z
2021-02-06T12:36:23Z,42.805,6.029,13.3024,4.60020,2470.24,2021-2-06T14:37:26Z
2021-02-06T12:39:26Z,42.805,6.029,13.3020,4.60021,2470.25,2021-2-06T14:40:29Z
2021-02-06T12:42:29Z,42.805,6.029,13.3046,4.60029,2470.264,2021-2-06T14:43:33Z
2021-02-06T12:45:32Z,42.805,6.029,13.3025,4.60007,2470.273,2021-2-06T14:46:36Z
2021-02-06T12:48:36Z,42.805,6.029,13.3030,4.60019,2470.273,2021-2-06T14:49:39Z
2021-02-06T12:51:39Z,42.805,6.029,13.3031,4.60024,2470.264,2021-2-06T14:52:42Z
2021-02-06T12:54:42Z,42.805,6.029,13.3028,4.60019,2470.25,2021-2-06T14:55:45Z
2021-02-06T12:57:45Z,42.805,6.029,13.3030,4.60023,2470.264,2021-2-06T14:58:48Z
2021-02-06T13:00:48Z,42.805,6.029,13.3009,4.60023,2470.25,2021-2-06T15:01:51Z
2021-02-06T13:03:51Z,42.805,6.029,13.3030,4.60020,2470.287,2021-2-06T15:04:54Z
2021-02-06T13:06:54Z,42.805,6.029,13.3021,4.60021,2470.273,2021-2-06T15:07:58Z
2021-02-06T13:09:57Z,42.805,6.029,13.3036,4.60020,2470.264,2021-2-06T15:11:01Z
2021-02-06T13:13:01Z,42.805,6.029,13.3038,4.60021,2470.31,2021-2-06T15:14:04Z
2021-02-06T13:16:04Z,42.805,6.029,13.3021,4.60031,2470.287,2021-2-06T15:17:07Z
2021-02-06T13:19:07Z,42.805,6.029,13.3020,4.60043,2470.25,2021-2-06T15:20:10Z
2021-02-06T13:22:10Z,42.805,6.029,13.3046,4.60020,2470.25,2021-2-06T15:23:13Z
2021-02-06T13:25:13Z,42.805,6.029,13.3052,4.60059,2470.264,2021-2-06T15:26:16Z
2021-02-06T13:28:16Z,42.805,6.029,13.3055,4.60016,2470.264,2021-2-06T15:29:19Z
2021-02-06T13:31:19Z,42.805,6.029,13.3045,4.60026,2470.25,2021-2-06T15:32:23Z
2021-02-06T13:34:22Z,42.805,6.029,13.3043,4.60029,2470.25,2021-2-06T15:35:26Z
2021-02-06T13:37:26Z,42.805,6.029,13.3021,4.60033,2470.24,2021-2-06T15:38:29Z
2021-02-06T13:40:29Z,42.805,6.029,13.3034,4.60035,2470.264,2021-2-06T15:41:32Z
2021-02-06T13:43:32Z,42.805,6.029,13.3039,4.60026,2470.264,2021-2-06T15:44:35Z
2021-02-06T13:46:35Z,42.805,6.029,13.3049,4.60014,2470.264,2021-2-06T15:47:38Z
2021-02-06T13:49:38Z,42.805,6.029,13.3027,4.60030,2470.24,2021-2-06T15:50:41Z
2021-02-06T13:52:41Z,42.805,6.029,13.3036,4.60020,2470.25,2021-2-06T15:53:44Z
2021-02-06T13:55:44Z,42.805,6.029,13.3034,4.60029,2470.25,2021-2-06T15:56:47Z
2021-02-06T13:58:47Z,42.805,6.029,13.3041,4.60027,2470.264,2021-2-06T15:59:51Z
2021-02-06T14:01:51Z,42.805,6.029,13.3040,4.60049,2470.264,2021-2-06T16:02:54Z
2021-02-06T14:04:54Z,42.805,6.029,13.3039,4.60032,2470.264,2021-2-06T16:05:57Z
2021-02-06T14:07:57Z,42.805,6.029,13.3023,4.60018,2470.273,2021-2-06T16:09:00Z
2021-02-06T14:11:00Z,42.805,6.029,13.3017,4.60023,2470.297,2021-2-06T16:12:03Z
2021-02-06T14:14:03Z,42.805,6.029,13.3036,4.60032,2470.227,2021-2-06T16:15:06Z
2021-02-06T14:17:06Z,42.805,6.029,13.3039,4.60015,2470.25,2021-2-06T16:18:09Z
2021-02-06T14:20:09Z,42.805,6.029,13.3052,4.60032,2470.25,2021-2-06T16:21:12Z
2021-02-06T14:23:12Z,42.805,6.029,13.3021,4.60031,2470.264,2021-2-06T16:24:16Z
2021-02-06T14:26:16Z,42.805,6.029,13.3016,4.60011,2470.287,2021-2-06T16:27:19Z
2021-02-06T14:29:19Z,42.805,6.029,13.3035,4.60017,2470.264,2021-2-06T16:30:22Z
2021-02-06T14:32:22Z,42.805,6.029,13.3041,4.60019,2470.287,2021-2-06T16:33:25Z
2021-02-06T14:35:25Z,42.805,6.029,13.3019,4.60026,2470.273,2021-2-06T16:36:28Z
2021-02-06T14:38:28Z,42.805,6.029,13.3015,4.60015,2470.227,2021-2-06T16:39:31Z
2021-02-06T14:41:31Z,42.805,6.029,13.3034,4.60027,2470.264,2021-2-06T16:42:34Z
2021-02-06T14:44:34Z,42.805,6.029,13.3039,4.60019,2470.227,2021-2-06T16:45:37Z
2021-02-06T14:47:37Z,42.805,6.029,13.3042,4.60042,2470.287,2021-2-06T16:48:41Z
2021-02-06T14:50:40Z,42.805,6.029,13.3018,4.60036,2470.227,2021-2-06T16:51:44Z
2021-02-06T14:53:44Z,42.805,6.029,13.3025,4.60033,2470.227,2021-2-06T16:54:47Z
2021-02-06T14:56:47Z,42.805,6.029,13.3010,4.60017,2470.25,2021-2-06T16:57:50Z
2021-02-06T14:59:50Z,42.805,6.029,13.3018,4.60044,2470.264,2021-2-06T17:00:53Z
2021-02-06T15:02:53Z,42.805,6.029,13.3014,4.60017,2470.24,2021-2-06T17:03:56Z
2021-02-06T15:05:56Z,42.805,6.029,13.3019,4.60025,2470.227,2021-2-06T17:06:59Z
2021-02-06T15:08:59Z,42.805,6.029,13.3026,4.60031,2470.264,2021-2-06T17:10:02Z
2021-02-06T15:12:02Z,42.805,6.029,13.3016,4.60050,2470.264,2021-2-06T17:13:06Z
2021-02-06T15:15:06Z,42.805,6.029,13.3056,4.60031,2470.24,2021-2-06T17:16:09Z